EW4443 Weather Reports


Display with metric or nautical units.
time (UTC)temp
F
wind
direction
speed
MPH
gust
MPH
rain 1hr
in
rain 24hr
in
rain mn
in
humidity
%
barometer
mb
20181215075608 47 270 0.0 0.0 0.00 0.00 0.00 55 1021.0
20181215075108 47 293 0.0 0.0 0.00 0.00 0.00 55 1021.0
20181215074608 47 293 0.0 0.0 0.00 0.00 0.00 55 1021.0
20181215074108 47 270 0.0 0.0 0.00 0.00 0.00 55 1020.7
20181215073608 47 270 0.0 0.0 0.00 0.00 0.00 55 1020.7
20181215073106 47 270 0.0 0.0 0.00 0.00 0.00 54 1020.7
20181215072551 47 270 0.0 0.0 0.00 0.00 0.00 54 1021.0
20181215072049 47 270 0.0 0.0 0.00 0.00 0.00 54 1021.0
20181215071549 47 270 0.0 0.0 0.00 0.00 0.00 53 1021.0
20181215071050 47 270 0.0 0.0 0.00 0.00 0.00 53 1021.4
20181215070549 47 248 0.0 0.0 0.00 0.00 0.00 53 1020.7
20181215070050 47 248 0.0 0.0 0.00 0.00 0.00 51 1021.0
20181215065549 47 248 0.0 0.0 0.00 0.00 0.00 51 1021.4
20181215065049 47 248 0.0 0.0 0.00 0.00 0.00 50 1021.8
20181215064549 47 270 0.0 0.0 0.00 0.00 0.00 50 1021.4
20181215064050 47 270 0.0 0.0 0.00 0.00 0.00 50 1021.4
20181215063549 47 270 0.0 0.0 0.00 0.00 0.00 50 1020.7
20181215063051 47 270 0.0 0.0 0.00 0.00 0.00 50 1021.4
20181215062549 47 270 0.0 0.0 0.00 0.00 0.00 50 1021.4
20181215062049 47 270 0.0 0.0 0.00 0.00 0.00 48 1021.4
20181215061549 47 270 0.0 0.0 0.00 0.00 0.00 48 1021.0
20181215061050 47 270 0.0 0.0 0.00 0.00 0.00 49 1021.4
20181215060549 47 293 0.0 0.0 0.00 0.00 0.00 49 1021.0
20181215060050 47 135 0.0 0.0 0.00 0.00 0.00 49 1021.4
20181215055551 47 158 0.0 0.0 0.00 0.00 0.00 48 1021.0
20181215055049 47 158 0.0 2.0 0.00 0.00 0.00 50 1021.0
20181215054549 47 45 0.0 2.0 0.00 0.00 0.00 50 1021.0
20181215054050 47 203 0.0 0.0 0.00 0.00 0.00 53 1021.0
20181215053549 47 293 0.0 0.0 0.00 0.00 0.00 53 1020.7
20181215053051 47 225 0.0 0.0 0.00 0.00 0.00 53 1021.4
20181215052549 47 135 0.0 0.0 0.00 0.00 0.00 54 1021.4
20181215052051 48 158 0.0 0.0 0.00 0.00 0.00 54 1022.1
20181215051546 48 90 0.0 0.0 0.00 0.00 0.00 54 1021.0
20181215051032 48 45 0.0 0.0 0.00 0.00 0.00 53 1021.8
20181215050530 48 158 0.0 0.0 0.00 0.00 0.00 53 1021.4
20181215050032 48 180 0.0 0.0 0.00 0.00 0.00 53 1021.4
20181215045531 48 180 0.0 0.0 0.00 0.00 0.00 50 1021.4
20181215045032 49 68 0.0 0.0 0.00 0.00 0.00 50 1021.4
20181215044531 49 68 0.0 0.0 0.00 0.00 0.00 50 1021.4
20181215044030 49 68 0.0 0.0 0.00 0.00 0.00 51 1021.0
20181215043531 49 68 0.0 0.0 0.00 0.00 0.00 50 1021.8
20181215043030 49 23 0.0 0.0 0.00 0.00 0.00 50 1021.4
20181215042531 49 158 0.0 0.0 0.00 0.00 0.00 49 1021.8
20181215042030 49 248 0.0 0.0 0.00 0.00 0.00 49 1021.4
20181215041530 49 45 0.0 0.0 0.00 0.00 0.00 49 1021.8
20181215041030 49 158 0.0 0.0 0.00 0.00 0.00 49 1021.4
20181215040532 50 158 0.0 0.0 0.00 0.00 0.00 49 1021.4
20181215040031 50 23 0.0 0.0 0.00 0.00 0.00 48 1021.4
20181215035528 50 23 0.0 0.0 0.00 0.00 0.00 48 1021.4
20181215035017 50 23 0.0 0.0 0.00 0.00 0.00 46 1022.1
20181215034512 51 23 0.0 0.0 0.00 0.00 0.00 46 1021.4
20181215034013 51 23 0.0 0.0 0.00 0.00 0.00 46 1021.8
20181215033511 51 23 0.0 0.0 0.00 0.00 0.00 46 1022.1
20181215033011 51 180 0.0 0.0 0.00 0.00 0.00 45 1021.8
20181215032512 51 180 0.0 0.0 0.00 0.00 0.00 45 1021.8
20181215032011 51 68 0.0 0.0 0.00 0.00 0.00 45 1021.8
20181215031513 52 68 0.0 0.0 0.00 0.00 0.00 45 1021.4
20181215031012 52 68 0.0 0.0 0.00 0.00 0.00 45 1021.4
20181215030513 52 68 0.0 0.0 0.00 0.00 0.00 45 1022.1
20181215030012 53 68 0.0 0.0 0.00 0.00 0.00 45 1022.1
20181215025513 53 225 0.0 0.0 0.00 0.00 0.00 44 1022.1
20181215025011 53 225 0.0 0.0 0.00 0.00 0.00 44 1022.1
20181215024512 53 45 0.0 0.0 0.00 0.00 0.00 43 1022.1
20181215024011 54 45 0.0 0.0 0.00 0.00 0.00 43 1022.1
20181215023512 54 45 0.0 0.0 0.00 0.00 0.00 41 1021.4
20181215023011 54 45 0.0 0.0 0.00 0.00 0.00 41 1021.8
20181215022511 54 180 0.0 0.0 0.00 0.00 0.00 40 1021.4
20181215022012 55 180 0.0 0.0 0.00 0.00 0.00 40 1021.4
20181215021511 55 68 0.0 0.0 0.00 0.00 0.00 40 1021.8
20181215021011 55 68 0.0 0.0 0.00 0.00 0.00 40 1021.4
20181215020512 55 158 0.0 0.0 0.00 0.00 0.00 40 1021.8
20181215020011 55 158 0.0 0.0 0.00 0.00 0.00 40 1021.4
20181215015511 55 158 0.0 0.0 0.00 0.00 0.00 39 1021.0
20181215015011 55 90 0.0 0.0 0.00 0.00 0.00 40 1021.0
20181215014511 56 68 0.0 1.0 0.00 0.00 0.00 39 1021.4
20181215014011 56 90 0.0 2.0 0.00 0.00 0.00 39 1020.7
20181215013513 56 68 0.0 2.0 0.00 0.00 0.00 40 1020.7
20181215013011 56 68 0.0 0.0 0.00 0.00 0.00 40 1021.0
20181215012511 57 68 0.0 0.0 0.00 0.00 0.00 40 1021.4
20181215012011 57 68 0.0 0.0 0.00 0.00 0.00 40 1020.7
20181215011511 57 68 0.0 0.0 0.00 0.00 0.00 40 1021.4
20181215011012 57 68 0.0 1.0 0.00 0.00 0.00 39 1021.0
20181215010511 58 68 0.0 2.0 0.00 0.00 0.00 40 1020.7
20181215010012 58 68 0.0 2.0 0.00 0.00 0.00 37 1020.7
20181215005511 59 68 0.0 2.0 0.00 0.00 0.00 37 1021.0
20181215005013 59 68 0.0 0.0 0.00 0.00 0.00 37 1021.0
20181215004510 59 135 0.0 2.0 0.00 0.00 0.00 37 1021.0
20181215004011 59 158 0.0 2.0 0.00 0.00 0.00 39 1021.0
20181215003511 60 158 0.0 1.0 0.00 0.00 0.00 40 1021.4
20181215003011 61 270 0.0 0.0 0.00 0.00 0.00 37 1020.7
20181215002511 61 270 0.0 0.0 0.00 0.00 0.00 35 1020.7
20181215002010 61 270 0.0 0.0 0.00 0.00 0.00 35 1020.7
20181215001512 62 225 0.0 0.0 0.00 0.00 0.00 35 1021.0
20181215001011 62 225 0.0 0.0 0.00 0.00 0.00 35 1021.0
20181215000513 62 225 0.0 0.0 0.00 0.00 0.00 35 1021.0
20181215000012 62 225 0.0 0.0 0.00 0.00 0.00 34 1021.0
20181214235511 62 23 0.0 0.0 0.00 0.00 0.00 34 1021.0
20181214235012 63 23 0.0 0.0 0.00 0.00 0.00 32 1020.3
20181214234511 63 23 0.0 0.0 0.00 0.00 0.00 32 1021.0
20181214234012 63 23 0.0 0.0 0.00 0.00 0.00 30 1021.0
20181214233511 63 23 0.0 2.0 0.00 0.00 0.00 29 1021.0
20181214233012 63 23 0.0 2.0 0.00 0.00 0.00 27 1020.3
20181214232511 63 45 0.0 2.0 0.00 0.00 0.00 31 1020.7
20181214232013 63 45 0.0 0.0 0.00 0.00 0.00 30 1020.7
20181214231512 63 45 0.0 0.0 0.00 0.00 0.00 30 1020.7
20181214231010 63 45 0.0 0.0 0.00 0.00 0.00 30 1020.7
20181214230512 63 45 0.0 0.0 0.00 0.00 0.00 31 1020.7
20181214230011 63 45 0.0 0.0 0.00 0.00 0.00 30 1021.0
20181214225511 63 45 0.0 0.0 0.00 0.00 0.00 30 1021.0
20181214225011 63 45 0.0 0.0 0.00 0.00 0.00 30 1021.4
20181214224512 63 45 0.0 0.0 0.00 0.00 0.00 30 1021.4
20181214224010 63 45 0.0 0.0 0.00 0.00 0.00 27 1021.0
20181214223512 63 180 0.0 0.0 0.00 0.00 0.00 27 1021.0
20181214223010 63 158 0.0 0.0 0.00 0.00 0.00 25 1021.4
20181214222511 64 315 0.0 1.0 0.00 0.00 0.00 25 1021.0
20181214222011 64 68 0.0 1.0 0.00 0.00 0.00 24 1021.4
20181214221511 64 68 0.0 4.0 0.00 0.00 0.00 24 1020.7
20181214221011 64 45 1.0 4.0 0.00 0.00 0.00 20 1021.0
20181214220511 64 23 1.0 4.0 0.00 0.00 0.00 19 1021.0
20181214220012 63 203 1.0 4.0 0.00 0.00 0.00 20 1021.0
20181214215510 63 0 0.0 3.0 0.00 0.00 0.00 20 1021.4
20181214215012 63 23 0.0 3.0 0.00 0.00 0.00 22 1021.8
20181214214511 63 338 1.0 3.0 0.00 0.00 0.00 20 1021.4
20181214214011 63 23 0.0 3.0 0.00 0.00 0.00 22 1022.1
20181214213511 63 23 1.0 3.0 0.00 0.00 0.00 20 1021.8
20181214213011 63 0 1.0 3.0 0.00 0.00 0.00 20 1021.8
20181214212512 63 0 1.0 3.0 0.00 0.00 0.00 20 1022.1
20181214212011 63 45 1.0 3.0 0.00 0.00 0.00 22 1021.8
20181214211512 62 45 1.0 3.0 0.00 0.00 0.00 22 1022.1
20181214211011 62 338 1.0 2.0 0.00 0.00 0.00 22 1022.1
20181214210511 62 45 0.0 2.0 0.00 0.00 0.00 22 1022.8
20181214210011 62 23 0.0 2.0 0.00 0.00 0.00 24 1023.1
20181214205510 62 315 0.0 3.0 0.00 0.00 0.00 24 1022.1
20181214205010 62 225 0.0 3.0 0.00 0.00 0.00 22 1022.1
20181214204511 62 338 0.0 3.0 0.00 0.00 0.00 22 1022.8
20181214204010 62 338 1.0 3.0 0.00 0.00 0.00 22 1022.1
20181214203510 62 315 1.0 3.0 0.00 0.00 0.00 22 1023.1
20181214203011 61 0 0.0 3.0 0.00 0.00 0.00 22 1022.1
20181214202510 61 0 0.0 4.0 0.00 0.00 0.00 22 1022.8
20181214202011 61 45 1.0 4.0 0.00 0.00 0.00 20 1023.1
20181214201511 61 90 1.0 4.0 0.00 0.00 0.00 20 1023.1
20181214201010 60 338 1.0 3.0 0.00 0.00 0.00 22 1023.5
20181214200511 60 0 0.0 3.0 0.00 0.00 0.00 22 1023.5
20181214200010 60 135 0.0 4.0 0.00 0.00 0.00 22 1023.1
20181214195510 60 23 0.0 4.0 0.00 0.00 0.00 24 1023.5
20181214195010 59 158 0.0 4.0 0.00 0.00 0.00 25 1023.1
20181214194511 59 225 1.0 4.0 0.00 0.00 0.00 25 1023.8
20181214194001 58 338 1.0 3.0 0.00 0.00 0.00 25 1023.8
20181214193451 58 23 0.0 3.0 0.00 0.00 0.00 25 1024.2
20181214192953 58 180 0.0 3.0 0.00 0.00 0.00 27 1024.6
20181214192450 58 270 0.0 3.0 0.00 0.00 0.00 27 1024.2
20181214191952 57 203 0.0 3.0 0.00 0.00 0.00 29 1024.6
20181214191451 57 270 0.0 4.0 0.00 0.00 0.00 30 1024.6
20181214190953 56 315 1.0 4.0 0.00 0.00 0.00 30 1024.2
20181214190451 56 338 1.0 4.0 0.00 0.00 0.00 31 1025.3
20181214185953 56 338 0.0 3.0 0.00 0.00 0.00 31 1024.6
20181214185452 55 315 1.0 3.0 0.00 0.00 0.00 31 1024.6
20181214184948 55 23 0.0 2.0 0.00 0.00 0.00 30 1024.6
20181214184434 55 0 0.0 2.0 0.00 0.00 0.00 34 1025.3
20181214183933 55 0 0.0 2.0 0.00 0.00 0.00 34 1024.9
20181214183434 54 293 0.0 3.0 0.00 0.00 0.00 35 1025.3
20181214182932 54 315 1.0 3.0 0.00 0.00 0.00 35 1025.3
20181214182433 54 315 0.0 3.0 0.00 0.00 0.00 35 1025.6
20181214181932 53 293 0.0 3.0 0.00 0.00 0.00 37 1025.9
20181214181434 53 338 0.0 2.0 0.00 0.00 0.00 35 1025.9
20181214180932 53 23 0.0 3.0 0.00 0.00 0.00 35 1025.6
20181214180432 53 23 1.0 3.0 0.00 0.00 0.00 35 1025.9
20181214175933 52 338 0.0 3.0 0.00 0.00 0.00 37 1025.9
20181214175432 52 338 0.0 3.0 0.00 0.00 0.00 37 1025.6
20181214174932 51 338 0.0 3.0 0.00 0.00 0.00 37 1025.9
20181214174432 51 315 0.0 2.0 0.00 0.00 0.00 37 1026.3
20181214173933 50 338 0.0 2.0 0.00 0.00 0.00 39 1025.9
20181214173432 49 338 0.0 1.0 0.00 0.00 0.00 40 1025.9
20181214172934 48 0 0.0 2.0 0.00 0.00 0.00 43 1025.9
20181214172432 48 0 0.0 2.0 0.00 0.00 0.00 43 1025.9
20181214171934 47 0 0.0 2.0 0.00 0.00 0.00 45 1025.9
20181214171432 47 90 0.0 2.0 0.00 0.00 0.00 44 1026.6
20181214170932 46 113 0.0 2.0 0.00 0.00 0.00 45 1025.9
20181214170433 46 113 0.0 2.0 0.00 0.00 0.00 45 1025.9
20181214165932 46 180 0.0 0.0 0.00 0.00 0.00 45 1025.9
20181214165433 45 180 0.0 0.0 0.00 0.00 0.00 45 1026.3
20181214164931 45 203 0.0 0.0 0.00 0.00 0.00 46 1026.3
20181214164433 45 180 0.0 0.0 0.00 0.00 0.00 45 1025.9
20181214163933 45 135 0.0 0.0 0.00 0.00 0.00 45 1025.9
20181214163431 44 225 0.0 1.0 0.00 0.00 0.00 45 1026.3
20181214162932 44 158 0.0 2.0 0.00 0.00 0.00 45 1026.6
20181214162432 44 158 0.0 3.0 0.00 0.00 0.00 48 1026.3
20181214161932 43 68 0.0 3.0 0.00 0.00 0.00 51 1025.9
20181214161427 42 23 0.0 2.0 0.00 0.00 0.00 54 1026.6
20181214160914 42 113 0.0 0.0 0.00 0.00 0.00 55 1026.3
20181214160412 41 158 0.0 0.0 0.00 0.00 0.00 55 1026.6
20181214155914 41 158 0.0 0.0 0.00 0.00 0.00 56 1027.1
20181214155413 40 158 0.0 0.0 0.00 0.00 0.00 56 1026.3
20181214154913 40 270 0.0 0.0 0.00 0.00 0.00 55 1026.6
20181214154414 40 270 0.0 0.0 0.00 0.00 0.00 56 1026.6
20181214153912 39 203 0.0 0.0 0.00 0.00 0.00 58 1025.9
20181214153413 39 68 0.0 0.0 0.00 0.00 0.00 60 1025.9
20181214152913 38 158 0.0 1.0 0.00 0.00 0.00 61 1026.3
20181214152413 38 68 0.0 1.0 0.00 0.00 0.00 61 1026.6
20181214151913 37 68 0.0 1.0 0.00 0.00 0.00 61 1026.3
20181214151412 37 158 0.0 0.0 0.00 0.00 0.00 63 1026.6
20181214150914 37 68 0.0 2.0 0.00 0.00 0.00 61 1026.3
20181214150412 37 45 0.0 2.0 0.00 0.00 0.00 63 1026.6
20181214145913 37 45 0.0 1.0 0.00 0.00 0.00 63 1025.9
20181214145412 36 113 0.0 0.0 0.00 0.00 0.00 63 1026.3
20181214144912 36 113 0.0 0.0 0.00 0.00 0.00 63 1026.3
20181214144412 36 225 0.0 0.0 0.00 0.00 0.00 63 1026.6
20181214143914 36 0 0.0 0.0 0.00 0.00 0.00 61 1026.3
20181214143412 36 23 0.0 0.0 0.00 0.00 0.00 61 1026.6
20181214142914 36 23 0.0 0.0 0.00 0.00 0.00 61 1026.6
20181214142413 36 0 0.0 0.0 0.00 0.00 0.00 63 1026.3
20181214141912 36 0 0.0 0.0 0.00 0.00 0.00 63 1026.6
20181214141412 36 23 0.0 1.0 0.00 0.00 0.00 63 1026.6
20181214140913 36 180 0.0 1.0 0.00 0.00 0.00 63 1025.9
20181214140413 36 23 0.0 0.0 0.00 0.00 0.00 63 1026.6
20181214135912 36 45 0.0 1.0 0.00 0.00 0.00 63 1025.9
20181214135413 36 45 0.0 1.0 0.00 0.00 0.00 65 1026.3
20181214134913 36 180 0.0 1.0 0.00 0.00 0.00 65 1026.6
20181214134410 36 113 0.0 0.0 0.00 0.00 0.00 65 1026.6
20181214133902 36 90 0.0 0.0 0.00 0.00 0.00 65 1026.6
20181214133404 36 90 0.0 0.0 0.00 0.00 0.00 65 1026.3
20181214132854 36 90 0.0 0.0 0.00 0.00 0.00 65 1025.9
20181214132353 36 90 0.0 0.0 0.00 0.00 0.00 63 1026.3
20181214131855 36 90 0.0 0.0 0.00 0.00 0.00 63 1025.9
20181214131353 36 90 0.0 0.0 0.00 0.00 0.00 63 1026.3
20181214130854 36 113 0.0 0.0 0.00 0.00 0.00 63 1026.3
20181214130354 36 90 0.0 0.0 0.00 0.00 0.00 63 1025.9
20181214125853 36 90 0.0 0.0 0.00 0.00 0.00 63 1025.9
20181214125354 36 68 0.0 0.0 0.00 0.00 0.00 63 1025.9
20181214124855 37 68 0.0 1.0 0.00 0.00 0.00 63 1026.3
20181214124354 37 68 0.0 2.0 0.00 0.00 0.00 63 1025.6
20181214123853 37 68 0.0 2.0 0.00 0.00 0.00 63 1025.9
20181214123355 37 68 0.0 0.0 0.00 0.00 0.00 63 1025.3
20181214122853 37 90 0.0 1.0 0.00 0.00 0.00 61 1025.6
20181214122355 37 68 0.0 2.0 0.00 0.00 0.00 61 1025.9
20181214121855 38 68 0.0 2.0 0.00 0.00 0.00 61 1025.6
20181214121354 38 90 0.0 0.0 0.00 0.00 0.00 60 1025.6
20181214120854 38 90 0.0 0.0 0.00 0.00 0.00 60 1025.3
20181214120353 38 90 0.0 0.0 0.00 0.00 0.00 60 1024.9
20181214115853 38 90 0.0 0.0 0.00 0.00 0.00 61 1024.9
20181214115353 38 90 0.0 0.0 0.00 0.00 0.00 60 1025.3
20181214114855 38 90 0.0 0.0 0.00 0.00 0.00 61 1024.9
20181214114353 38 113 0.0 0.0 0.00 0.00 0.00 60 1025.3
20181214113854 38 113 0.0 0.0 0.00 0.00 0.00 60 1025.3
20181214113355 38 113 0.0 0.0 0.00 0.00 0.00 60 1024.6
20181214112853 38 113 0.0 1.0 0.00 0.00 0.00 59 1024.2
20181214112354 38 113 0.0 1.0 0.00 0.00 0.00 60 1024.6
20181214111853 38 158 0.0 1.0 0.00 0.00 0.00 61 1024.9
20181214111355 38 135 0.0 1.0 0.00 0.00 0.00 59 1024.9
20181214110853 38 135 0.0 2.0 0.00 0.00 0.00 59 1024.6
20181214110355 38 180 0.0 2.0 0.00 0.00 0.00 60 1024.6
20181214105853 39 113 0.0 0.0 0.00 0.00 0.00 60 1025.3
20181214105353 39 113 0.0 0.0 0.00 0.00 0.00 61 1024.9
20181214104854 39 113 0.0 0.0 0.00 0.00 0.00 61 1024.6
20181214104354 39 113 0.0 0.0 0.00 0.00 0.00 61 1025.3
20181214103853 39 23 0.0 0.0 0.00 0.00 0.00 60 1024.6
20181214103353 39 23 0.0 0.0 0.00 0.00 0.00 60 1024.9
20181214102854 39 23 0.0 0.0 0.00 0.00 0.00 60 1025.3
20181214102352 39 23 0.0 1.0 0.00 0.00 0.00 60 1025.3
20181214101854 39 23 0.0 2.0 0.00 0.00 0.00 60 1024.6
20181214101353 39 293 0.0 2.0 0.00 0.00 0.00 58 1024.6
20181214100853 39 158 0.0 0.0 0.00 0.00 0.00 56 1024.6
20181214100354 39 158 0.0 0.0 0.00 0.00 0.00 55 1024.6
20181214095846 40 158 0.0 0.0 0.00 0.00 0.00 55 1024.9
20181214095340 40 203 0.0 0.0 0.00 0.00 0.00 55 1024.9
20181214094838 40 180 0.0 0.0 0.00 0.00 0.00 54 1024.2
20181214094337 40 158 0.0 0.0 0.00 0.00 0.00 54 1024.6
20181214093834 40 45 0.0 0.0 0.00 0.00 0.00 53 1024.6
20181214093336 41 158 0.0 0.0 0.00 0.00 0.00 53 1024.9
20181214092834 41 158 0.0 0.0 0.00 0.00 0.00 51 1024.2
20181214092334 41 338 0.0 0.0 0.00 0.00 0.00 50 1024.2
20181214091835 42 0 0.0 0.0 0.00 0.00 0.00 50 1024.6
20181214091333 42 158 0.0 0.0 0.00 0.00 0.00 50 1024.6
20181214090834 42 158 0.0 0.0 0.00 0.00 0.00 49 1024.2
20181214090334 42 68 0.0 0.0 0.00 0.00 0.00 50 1024.6
20181214085835 42 68 0.0 0.0 0.00 0.00 0.00 49 1024.6
20181214085334 42 68 0.0 2.0 0.00 0.00 0.00 49 1024.2
20181214084835 42 45 0.0 2.0 0.00 0.00 0.00 48 1024.2
20181214084335 42 45 0.0 0.0 0.00 0.00 0.00 48 1024.2
20181214083834 42 45 0.0 0.0 0.00 0.00 0.00 46 1024.2
20181214083336 43 45 0.0 1.0 0.00 0.00 0.00 46 1024.6
20181214082836 43 45 0.0 2.0 0.00 0.00 0.00 46 1024.2
20181214082334 43 248 0.0 2.0 0.00 0.00 0.00 48 1023.8
20181214081835 43 225 0.0 3.0 0.00 0.00 0.00 48 1023.8
20181214081335 43 45 0.0 3.0 0.00 0.00 0.00 48 1024.2
20181214080834 44 45 0.0 3.0 0.00 0.00 0.00 48 1024.6
20181214080335 44 293 0.0 0.0 0.00 0.00 0.00 46 1024.9